Location: Evergreen Manor
(41.4083°N, 81.4939°W)
Time: 18:32:34
(UTC+00:00)

Okean 1-7 - Pass Details

Date: 11 December 2019
Orbit: 590 x 619 km, 82.5° (Epoch: 28 January)

Event Time Altitude Azimuth Distance (km) Brightness Sun altitude
Exits shadow 10:15:34 35° 27° (NNE) 1,012 4.2 -26.6°
Maximum altitude 10:17:01 50° 79° (ENE) 793 3.9 -26.3°
Drops below altitude 10° 10:21:16 10° 155° (SSE) 1,971 6.0 -25.5°
Sets 10:23:32 0° 161° (SSE) 2,867 6.9 -25.1°
